Weather History for KERI - May, 2014

Change the Weather History Date:

Friday, May 2, 2014

  Actual Average Record
Temperature  
Mean Temperature 50 °F 53 °F  
Max Temperature 52 °F 62 °F 86 °F (1887)
Min Temperature 47 °F 44 °F 30 °F (1963)
Degree Days  
Heating Degree Days 15 13  
Month to date heating degree days 27 26  
Since 1 July heating degree days 6517 5845  
Cooling Degree Days 0 0  
Month to date cooling degree days 0 0  
Year to date cooling degree days 0 7  
Moisture  
Dew Point 40 °F    
Average Humidity 69    
Maximum Humidity 77    
Minimum Humidity 61    
Precipitation  
Precipitation T in 0.10 in 1.37 in (1929)
Month to date precipitation 0.01 0.20  
Year to date precipitation 12.91 11.82  
Snow  
Snow 0.00 in 0.00 in - ()
Month to date snowfall 0.0 0.0  
Since 1 July snowfall 138.4 100.9  
Snow Depth 0.00 in    
Sea Level Pressure  
Sea Level Pressure 29.80 in    
Wind  
Wind Speed 9 mph (WSW)    
Max Wind Speed 21 mph    
Max Gust Speed 29 mph    
Visibility 10 miles    
Events Rain    
T = Trace of Precipitation, MM = Missing Value Source: NWS Daily Summary

Daily Weather History Graph

Daily Weather History Graph

Search for Another Location

Airport or City:

Trip Planner

Search our weather history database for the weather conditions in past years. The results will help you decide how hot, cold, wet, or windy it might be!

Date:

Astronomy

May. 02, 2014 Rise Set
Actual Time 6:15 AM EDT 8:20 PM EDT
Civil Twilight 5:44 AM EDT 8:51 PM EDT
Nautical Twilight 5:07 AM EDT 9:29 PM EDT
Astronomical Twilight 4:26 AM EDT 10:10 PM EDT
Moon 8:50 AM EDT (5/2) 11:42 PM EDT (5/2)
Length of Visible Light 15h 06m
Length of Day
14h 05m
Waxing Crescent, 12% of the Moon is Illuminated
May 2
Waxing Crescent
May 6
First Quarter
May 14
Full
May 21
Last Quarter
May 28
New

Hourly Weather History & Observations

Time (EDT) Temp. Windchill Dew Point Humidity Pressure Visibility Wind Dir Wind Speed Gust Speed Precip Events Conditions
12:51 AM 48.9 °F - 39.0 °F 69% 29.79 in 10.0 mi SW 8.1 mph - N/A   Overcast
1:51 AM 50.0 °F - 37.4 °F 62% 29.77 in 10.0 mi WSW 9.2 mph - N/A   Overcast
2:51 AM 50.0 °F - 37.0 °F 61% 29.76 in 10.0 mi SW 8.1 mph - N/A   Overcast
3:51 AM 48.9 °F - 37.9 °F 66% 29.75 in 10.0 mi WSW 12.7 mph 23.0 mph N/A   Overcast
4:51 AM 48.0 °F - 39.9 °F 74% 29.76 in 10.0 mi WSW 11.5 mph 21.9 mph 0.00 in Rain Light Rain
5:43 AM 46.4 °F 41.9 °F 39.2 °F 76% 29.75 in 10.0 mi SSW 9.2 mph - 0.00 in   Overcast
5:51 AM 46.9 °F - 39.9 °F 77% 29.76 in 10.0 mi SSW 8.1 mph - 0.00 in   Overcast
5:58 AM 46.4 °F 42.4 °F 39.2 °F 76% 29.75 in 10.0 mi SSW 8.1 mph - N/A   Overcast
6:06 AM 46.4 °F 43.5 °F 39.2 °F 76% 29.75 in 10.0 mi SW 5.8 mph - N/A   Overcast
6:51 AM 46.9 °F - 39.9 °F 77% 29.77 in 10.0 mi SW 9.2 mph - 0.00 in   Overcast
7:26 AM 48.2 °F - 39.2 °F 71% 29.77 in 10.0 mi SW 12.7 mph 25.3 mph 0.00 in   Overcast
7:51 AM 46.9 °F - 39.9 °F 77% 29.78 in 10.0 mi SW 8.1 mph - 0.00 in   Overcast
8:51 AM 48.0 °F - 41.0 °F 77% 29.80 in 10.0 mi WSW 8.1 mph - N/A   Overcast
9:51 AM 48.9 °F - 41.0 °F 74% 29.80 in 10.0 mi SW 9.2 mph 16.1 mph N/A   Overcast
10:51 AM 50.0 °F - 39.0 °F 66% 29.81 in 10.0 mi West 15.0 mph 23.0 mph N/A   Overcast
11:51 AM 48.9 °F - 39.0 °F 69% 29.82 in 10.0 mi West 17.3 mph 25.3 mph N/A   Overcast
12:51 PM 48.9 °F - 39.0 °F 69% 29.81 in 10.0 mi WSW 12.7 mph 25.3 mph 0.00 in Rain Light Rain
1:51 PM 50.0 °F - 39.0 °F 66% 29.82 in 10.0 mi West 17.3 mph 27.6 mph 0.00 in   Overcast
2:51 PM 50.0 °F - 39.9 °F 68% 29.82 in 10.0 mi West 12.7 mph 20.7 mph N/A   Overcast
3:51 PM 52.0 °F - 39.0 °F 61% 29.82 in 10.0 mi WSW 13.8 mph - N/A   Overcast
4:51 PM 52.0 °F - 39.9 °F 63% 29.82 in 10.0 mi West 11.5 mph 19.6 mph N/A   Overcast
5:51 PM 52.0 °F - 39.9 °F 63% 29.82 in 10.0 mi WSW 6.9 mph - N/A   Overcast
6:51 PM 52.0 °F - 39.0 °F 61% 29.82 in 10.0 mi WSW 9.2 mph - N/A   Overcast
7:51 PM 52.0 °F - 39.0 °F 61% 29.83 in 10.0 mi SW 3.5 mph - N/A   Overcast
8:51 PM 50.0 °F - 42.1 °F 74% 29.85 in 10.0 mi West 5.8 mph - N/A   Overcast
9:51 PM 50.0 °F - 42.1 °F 74% 29.85 in 10.0 mi SW 3.5 mph - N/A   Overcast
10:51 PM 50.0 °F - 42.1 °F 74% 29.85 in 10.0 mi Calm Calm - N/A   Overcast
11:51 PM 51.1 °F - 41.0 °F 68% 29.84 in 10.0 mi WSW 4.6 mph - N/A   Overcast